Regional Weather Roundup
Issued by NWS Burlington, VT

Home | Current Version | Previous Version | Text Only | Print | Product List | Glossary On
Versions: 1 2 3 4 5 6 7 8 9 10 11 12 13 14 15 16 17 18 19 20 21 22 23 24 25 26 27 28 29 30 31 32 33 34 35 36 37 38 39 40 41 42 43 44 45 46 47 48 49 50
000
ASUS41 KBTV 290430
RWRBTV
VERMONT REGIONAL WEATHER ROUNDUP
NATIONAL WEATHER SERVICE BURLINGTON VT
1200 AM EDT SAT APR 29 2017

NOTE: "FAIR" INDICATES FEW OR NO CLOUDS BELOW 12,000 FEET WITH NO
SIGNIFICANT WEATHER AND/OR OBSTRUCTIONS TO VISIBILITY.

* THESE REPORTS ARE NOT UNDER NWS QUALITY CONTROL AND/OR DO NOT
  REPORT WEATHER SUCH AS PRECIPITATION AND FOG.

VTZ001>019-290500-
_____VERMONT_____


CITY           SKY/WX    TMP DP  RH WIND       PRES   REMARKS
BURLINGTON     CLOUDY    70  30  22 W6        29.96S
MONTPELIER     MOCLDY    66  30  26 SW6       30.02S
MORRISVILLE    PTCLDY    50  41  71 CALM      29.98F
ST. JOHNSBURY*   N/A     54  44  69 MISG      29.97S
LYNDONVILLE*   FAIR      58  34  40 CALM      30.01R
RUTLAND*       PTCLDY    59  41  51 SE9       30.01R
SPRINGFIELD    CLOUDY    52  43  71 CALM      30.02R
HIGHGATE*      FAIR      62  35  36 SW3       29.96R
NEWPORT*       FAIR      56  38  50 SE8       29.98S
BENNINGTON     CLOUDY    55  48  77 CALM      30.02R
SUTTON*          N/A     54 N/A N/A MISG        N/A
ISLAND POND*     N/A     45 N/A N/A W1          N/A
GALLUP MILLS*    N/A     46 N/A N/A MISG        N/A
UNION VILLAGE*   N/A     52 N/A N/A MISG        N/A
MT. MANSFIELD*   N/A     52 N/A N/A W35         N/A

_____LAKE CHAMPLAIN_____


CITY           SKY/WX    TMP DP  RH WIND       PRES   REMARKS
BURTON ISLAND*   N/A     59  37  44 W13         N/A
COLCHESTER RF*   N/A     68  32  26 NW8         N/A
DIAMOND ISL*     N/A     63  34  34 SW3         N/A

$$

NYZ007-026>031-035-052-083-087-290500-
_____NORTHERN NEW YORK_____


CITY           SKY/WX    TMP DP  RH WIND       PRES   REMARKS
PLATTSBURGH    CLOUDY    66  34  30 VRB5      29.96S
SARANAC LAKE   PTCLDY    51  39  63 CALM      29.99S
MASSENA        CLOUDY    58  43  57 SW10      29.95S
OGDENSBURG*    FAIR      58  45  62 SW7       29.95F
POTSDAM*       PTCLDY    59  45  58 SW8       29.96S
STARK FALLS*     N/A     57 N/A N/A S6          N/A
WATERTOWN      CLOUDY    55  45  68 S3        29.96F
FT DRUM        MOCLDY    57  43  60 S8        29.96F
ALBANY         MOCLDY    60  51  72 CALM      30.01R
GLENS FALLS    CLOUDY    55  47  74 CALM      29.98S

$$
NHZ002-005-011-290500-
_____NEW HAMPSHIRE_____


CITY           SKY/WX    TMP DP  RH WIND       PRES   REMARKS
LEBANON        CLOUDY    54  44  69 CALM      29.99S
MT WASHINGTON  MOCLDY    41  34  75 W62         N/A  WCI  26
PLYMOUTH       FAIR      52  46  81 CALM      29.99R
WHITEFIELD     PTCLDY    48  41  76 CALM      29.99R

$$

_____REGIONAL QUEBEC LOCATIONS_____


CITY           SKY/WX    TMP DP  RH WIND       PRES   REMARKS
MONTREAL       PTCLDY    57  43  58 S9        29.92F
QUEBEC CITY    PTCLDY    48  43  81 SW13      29.88S
SHERBROOKE     CLEAR     52  41  66 VRB2      29.95S

_____REGIONAL ONTARIO LOCATIONS_____


CITY           SKY/WX    TMP DP  RH WIND       PRES   REMARKS
OTTAWA         MOCLDY    55  45  67 S7        29.92S

______KEY______
VSB  - VISIBILITY IN MILES
WCI  - WIND CHILL INDEX
HX   - HEAT INDEX
$$
NNNN



USA.gov is the U.S. government's official web portal to all federal, state and local government web resources and services.